| time (UTC) | temp F | wind direction | speed MPH | gust MPH | rain 1hr in | rain 24hr in | rain mn in | humidity % | barometer mb |
| 20260904041533 | 67 | 17 | 0.0 | 0.0 | 0.00 | 0.50 | 0.00 | 96 | 1014.7 |
| 20260904040036 | 67 | 17 | 0.0 | 0.0 | 0.00 | 0.50 | 0.50 | 96 | 1014.6 |
| 20260904034521 | 67 | 17 | 0.0 | 0.0 | 0.00 | 0.50 | 0.50 | 96 | 1014.5 |
| 20260904033016 | 68 | 17 | 0.0 | 0.0 | 0.00 | 0.50 | 0.50 | 96 | 1014.4 |
| 20260904031542 | 68 | 17 | 0.0 | 0.0 | 0.00 | 0.50 | 0.50 | 96 | 1014.3 |
| 20260904030042 | 68 | 17 | 0.0 | 0.0 | 0.00 | 0.50 | 0.50 | 96 | 1014.2 |
| 20260904024547 | 68 | 17 | 0.0 | 0.0 | 0.00 | 0.50 | 0.50 | 95 | 1014.2 |
| 20260904023049 | 68 | 17 | 0.0 | 0.0 | 0.00 | 0.50 | 0.50 | 95 | 1014.3 |
| 20260904021608 | 69 | 17 | 0.0 | 0.0 | 0.00 | 0.50 | 0.50 | 95 | 1014.4 |
| 20260904021502 | 69 | 17 | 0.0 | 0.0 | 0.00 | 0.50 | 0.50 | 95 | 1014.4 |
| 20260904020057 | 69 | 17 | 0.0 | 0.0 | 0.00 | 0.53 | 0.50 | 95 | 1014.4 |
| 20260904014510 | 69 | 17 | 0.0 | 0.0 | 0.01 | 0.53 | 0.50 | 95 | 1014.3 |
| 20260904013010 | 70 | 17 | 0.0 | 0.0 | 0.01 | 0.53 | 0.50 | 94 | 1014.2 |
| 20260904011537 | 71 | 17 | 0.0 | 0.0 | 0.19 | 0.53 | 0.50 | 95 | 1014.1 |
| 20260904010038 | 72 | 17 | 0.0 | 0.0 | 0.32 | 0.62 | 0.50 | 95 | 1014.1 |
| 20260904004526 | 72 | 17 | 0.0 | 2.0 | 0.31 | 0.61 | 0.49 | 95 | 1014.0 |
| 20260904003034 | 72 | 17 | 0.0 | 2.0 | 0.31 | 0.61 | 0.49 | 95 | 1013.8 |
| 20260904001525 | 74 | 5 | 1.0 | 4.0 | 0.10 | 0.40 | 0.30 | 94 | 1013.9 |
| 20260904000028 | 75 | 196 | 0.0 | 1.0 | 0.00 | 1.07 | 0.18 | 95 | 1013.1 |
| 20260903234510 | 75 | 196 | 0.0 | 0.0 | 0.00 | 1.07 | 0.18 | 95 | 1013.4 |
| 20260903233054 | 75 | 196 | 0.0 | 0.0 | 0.00 | 1.07 | 0.18 | 95 | 1013.5 |
| 20260903231552 | 75 | 196 | 0.0 | 1.0 | 0.00 | 1.07 | 0.18 | 95 | 1013.5 |
| 20260903230054 | 76 | 196 | 0.0 | 1.0 | 0.00 | 1.08 | 0.18 | 95 | 1013.4 |
| 20260903224610 | 75 | 196 | 0.0 | 0.0 | 0.00 | 1.08 | 0.18 | 94 | 1013.4 |
| 20260903223010 | 76 | 196 | 0.0 | 0.0 | 0.00 | 1.08 | 0.18 | 94 | 1013.2 |
| 20260903221508 | 76 | 196 | 0.0 | 0.0 | 0.00 | 1.08 | 0.18 | 94 | 1012.7 |
| 20260903220004 | 76 | 196 | 0.0 | 1.0 | 0.00 | 1.08 | 0.18 | 94 | 1012.9 |
| 20260903214606 | 76 | 196 | 0.0 | 1.0 | 0.00 | 1.08 | 0.18 | 93 | 1012.9 |
| 20260903213058 | 76 | 196 | 0.0 | 2.0 | 0.00 | 1.08 | 0.18 | 93 | 1012.9 |
| 20260903211547 | 76 | 196 | 0.0 | 1.0 | 0.01 | 1.08 | 0.18 | 93 | 1013.2 |
| 20260903210108 | 76 | 196 | 0.0 | 0.0 | 0.17 | 1.08 | 0.18 | 93 | 1013.5 |
| 20260903204537 | 76 | 196 | 0.0 | 0.0 | 0.17 | 1.08 | 0.18 | 93 | 1013.3 |
| 20260903203019 | 76 | 328 | 0.0 | 2.0 | 0.17 | 1.08 | 0.18 | 90 | 1013.5 |
| 20260903201521 | 77 | 281 | 0.0 | 2.0 | 0.16 | 1.07 | 0.17 | 87 | 1013.7 |
| 20260903103004 | 69 | 263 | 1.0 | 3.0 | 0.00 | 1.10 | 0.00 | 94 | 1014.0 |
| 20260903101609 | 69 | 262 | 0.0 | 3.0 | 0.00 | 1.10 | 0.00 | 94 | 1013.8 |
| 20260903101502 | 69 | 256 | 0.0 | 3.0 | 0.00 | 1.10 | 0.00 | 94 | 1013.9 |
| 20260903100103 | 69 | 252 | 1.0 | 4.0 | 0.00 | 1.10 | 0.00 | 94 | 1013.6 |
| 20260903100002 | 69 | 252 | 1.0 | 2.0 | 0.00 | 1.10 | 0.00 | 94 | 1013.6 |
| 20260903094524 | 69 | 249 | 1.0 | 2.0 | 0.00 | 1.10 | 0.00 | 94 | 1013.5 |
| 20260903093055 | 69 | 260 | 1.0 | 3.0 | 0.00 | 1.10 | 0.00 | 94 | 1013.5 |
| 20260903091536 | 69 | 253 | 1.0 | 4.0 | 0.00 | 1.10 | 0.00 | 94 | 1013.6 |
| 20260903090036 | 69 | 239 | 1.0 | 4.0 | 0.00 | 1.10 | 0.00 | 94 | 1013.5 |
| 20260903084535 | 69 | 254 | 1.0 | 3.0 | 0.00 | 1.10 | 0.00 | 94 | 1013.5 |
| 20260903083037 | 69 | 248 | 1.0 | 6.0 | 0.00 | 1.10 | 0.00 | 94 | 1013.4 |
| 20260903081530 | 69 | 273 | 1.0 | 4.0 | 0.00 | 1.10 | 0.00 | 94 | 1013.3 |
| 20260903080017 | 69 | 263 | 2.0 | 8.0 | 0.00 | 1.10 | 0.00 | 94 | 1013.4 |
| 20260903074517 | 69 | 277 | 2.0 | 4.0 | 0.00 | 1.10 | 0.00 | 95 | 1013.2 |
| 20260903073019 | 69 | 267 | 2.0 | 6.0 | 0.00 | 1.10 | 0.00 | 95 | 1013.1 |
| 20260903071514 | 69 | 266 | 2.0 | 4.0 | 0.00 | 1.10 | 0.00 | 95 | 1013.2 |
| 20260903070011 | 69 | 251 | 1.0 | 4.0 | 0.00 | 1.10 | 0.00 | 95 | 1013.4 |
| 20260903064513 | 69 | 242 | 1.0 | 2.0 | 0.00 | 1.10 | 0.00 | 96 | 1013.5 |
| 20260903063033 | 69 | 264 | 1.0 | 2.0 | 0.00 | 1.10 | 0.00 | 96 | 1013.6 |
| 20260903061511 | 69 | 248 | 1.0 | 3.0 | 0.00 | 1.10 | 0.00 | 96 | 1013.5 |
| 20260903060050 | 69 | 250 | 1.0 | 3.0 | 0.00 | 1.10 | 0.00 | 96 | 1013.6 |
| 20260903054529 | 69 | 239 | 1.0 | 3.0 | 0.00 | 1.10 | 0.00 | 96 | 1013.5 |
| 20260903053011 | 68 | 265 | 1.0 | 2.0 | 0.00 | 1.10 | 0.00 | 96 | 1014.0 |
| 20260903051510 | 68 | 263 | 1.0 | 3.0 | 0.00 | 1.10 | 0.00 | 96 | 1013.6 |
| 20260903050013 | 68 | 267 | 1.0 | 3.0 | 0.00 | 1.10 | 0.00 | 96 | 1013.3 |
| 20260903044531 | 68 | 266 | 1.0 | 2.0 | 0.00 | 1.10 | 0.00 | 96 | 1013.2 |
| 20260903043039 | 68 | 252 | 0.0 | 2.0 | 0.00 | 1.10 | 0.00 | 96 | 1012.9 |